This demonstration page uses our WeatherBlox Daily Observations layout. Learn more.

Left ArrowRight Arrow

36.17497, -115.13722

Hourly Observations for March 21, 2021

Temp ( °F °C ) Dew Point ( °F °C ) Humidity (%) Winds ( mph kmh ) Pressure ( in mb ) Visibility ( mi km ) Precip ( " mm )
12:53 am 00:53 Clear 59 15 21 -6.1 23 23 NW 22 35 29.96 1015 10 16 0.00 0.00
1:53 am 01:53 Clear 57 13.9 25 -3.9 29 29 NW 23 37 29.98 1015 10 16 0.00 0.00
2:53 am 02:53 Clear 56 13.3 22 -5.6 27 27 NW 23 37 29.98 1015 10 16 0.00 0.00
3:53 am 03:53 Clear 55 12.8 22 -5.6 28 28 NW 23 37 29.98 1015 10 16 0.00 0.00
4:53 am 04:53 Clear 54 12.2 22 -5.6 29 29 NW 23 37 30.01 1016 10 16 0.00 0.00
5:53 am 05:53 Clear 53 11.7 22 -5.6 30 30 NNW 15 24 30.02 1017 10 16 0.00 0.00
6:53 am 06:53 Sunny 52 11.1 21 -6.1 30 30 NNW 16 26 30.05 1018 10 16 0.00 0.00
7:53 am 07:53 Sunny 54 12.2 21 -6.1 28 28 NNW 20 31 30.06 1018 10 16 0.00 0.00
8:53 am 08:53 Sunny 55 12.8 20 -6.7 25 25 NW 23 37 30.07 1018 10 16 0.00 0.00
9:53 am 09:53 Sunny 57 13.9 20 -6.7 24 24 NNW 21 33 30.08 1019 10 16 0.00 0.00
10:53 am 10:53 Sunny with Light Rain 59 15 20 -6.7 22 22 NW 20 31 30.06 1018 10 16 0.00 0.00
11:53 am 11:53 Sunny 62 16.7 21 -6.1 21 21 NNW 16 26 30.05 1018 10 16 0.00 0.00
12:53 pm 12:53 Sunny 64 17.8 19 -7.2 18 18 NW 16 26 30.02 1017 10 16 0.00 0.00
1:53 pm 13:53 Sunny 65 18.3 12 -11.1 13 13 NW 20 31 29.98 1015 10 16 0.00 0.00
2:53 pm 14:53 Sunny 66 18.9 13 -10.6 13 13 NNW 16 26 29.97 1015 10 16 0.00 0.00
3:53 pm 15:53 Sunny 67 19.4 12 -11.1 12 12 WNW 16 26 29.95 1014 10 16 0.00 0.00
4:53 pm 16:53 Sunny 67 19.4 9 -12.8 10 10 NW 18 30 29.93 1014 10 16 0.00 0.00
5:53 pm 17:53 Sunny 65 18.3 4 -15.6 9 9 NW 22 35 29.95 1014 10 16 0.00 0.00
6:53 pm 18:53 Sunny 62 16.7 5 -15 10 10 NNW 21 33 29.96 1015 10 16 0.00 0.00
7:53 pm 19:53 Clear 61 16.1 6 -14.4 11 11 NNW 17 28 29.99 1016 10 16 0.00 0.00
8:53 pm 20:53 Clear 60 15.6 8 -13.3 12 12 NNW 16 26 30.01 1016 10 16 0.00 0.00
9:53 pm 21:53 Clear 58 14.4 9 -12.8 14 14 NNE 10 17 30.04 1017 10 16 0.00 0.00
10:53 pm 22:53 Clear 56 13.3 11 -11.7 17 17 N 7 11 30.06 1018 10 16 0.00 0.00
11:53 pm 23:53 Clear 56 13.3 14 -10 19 19 N 7 11 30.06 1018 10 16 0.00 0.00

Powered by AerisWeather